Zurück zum Katalog

STARLINK-32406

AktivKommunikationVLEO
NORAD 61545·PAYLOAD·🇺🇸 United States

Gestartet Oct 15, 2024 von Vandenberg Space Force Base

Loading…

Nächste Überflüge (nächste 24 Stunden)

TLE

AktuellSource: CelesTrak SupGP

Epoche: Sep 14, 2026, 21:35 UTC

1 61545C 24184P   26257.89979167  .00022249  00000+0  65718-3 0  2573
2 61545  53.1594 212.0866 0001498  90.0236  71.2774 15.34386612    15

Verfolge STARLINK-32406 in Echtzeit mit AllMySat

Download on the App Store